This is the latest recevied weather packets stored in our database for station/object AI9F. If no packets are shown the sender has not sent any weather packets the latest 10 day(s).
| Time | Temp. | Humidity | Pressure | Rain* | Wind** | Luminosity | Snow |
|---|---|---|---|---|---|---|---|
| 1777134467 | 23.33° C | 50% | 1012.7 hPa | 0 mm | - | 753 W/m² | - |
| 1777134164 | 22.78° C | 52% | 1012.8 hPa | 0 mm | - | 751 W/m² | - |
| 1777133861 | 22.22° C | 50% | 1012.6 hPa | 0 mm | - | 740 W/m² | - |
| 1777133557 | 22.78° C | 53% | 1012.6 hPa | 0 mm | - | 613 W/m² | - |
| 1777133257 | 22.78° C | 53% | 1012.5 hPa | 0 mm | - | 307 W/m² | - |
| 1777132956 | 22.78° C | 56% | 1012.8 hPa | 0 mm | - | 694 W/m² | - |
| 1777132652 | 22.78° C | 57% | 1012.9 hPa | 0 mm | - | 508 W/m² | - |
| 1777132349 | 21.67° C | 58% | 1012.8 hPa | 0 mm | - | 671 W/m² | - |
| 1777132046 | 21.67° C | 60% | 1012.8 hPa | 0 mm | - | 202 W/m² | - |
| 1777131741 | 21.67° C | 60% | 1012.9 hPa | 0 mm | - | 116 W/m² | - |
| 1777131439 | 21.67° C | 62% | 1012.8 hPa | 0 mm | - | 116 W/m² | - |
| 1777131138 | 21.11° C | 64% | 1012.8 hPa | 0 mm | - | 73 W/m² | - |
| 1777130834 | 20.56° C | 64% | 1012.6 hPa | 0 mm | - | 64 W/m² | - |
| 1777130530 | 20.56° C | 66% | 1012.6 hPa | 0 mm | - | 64 W/m² | - |
| 1777130226 | 20.56° C | 65% | 1012.6 hPa | 0 mm | - | 158 W/m² | - |
| 1777129922 | 20.56° C | 66% | 1012.7 hPa | 0 mm | - | 139 W/m² | - |
| 1777129617 | 20° C | 66% | 1012.9 hPa | 0 mm | - | 76 W/m² | - |
| 1777129316 | 19.44° C | 69% | 1012.6 hPa | 0 mm | - | 54 W/m² | - |
| 1777129012 | 19.44° C | 67% | 1012.6 hPa | 0 mm | - | 53 W/m² | - |
| 1777128708 | 19.44° C | 67% | 1012.8 hPa | 0 mm | - | 52 W/m² | - |
| 1777128406 | 18.89° C | 70% | 1012.7 hPa | 0 mm | - | 51 W/m² | - |
| 1777128103 | 18.89° C | 69% | 1012.7 hPa | 0 mm | - | 53 W/m² | - |
| 1777127801 | 18.33° C | 71% | 1012.5 hPa | 0 mm | - | 50 W/m² | - |
| 1777127498 | 18.33° C | 69% | 1012.7 hPa | 0 mm | - | 55 W/m² | - |
| 1777127193 | 18.33° C | 72% | 1012.6 hPa | 0 mm | - | 54 W/m² | - |
* Rain latest hour (hover to see other rain measurements)
** Current wind speed in m/s (hover to see current wind gust speed)